TimeEST,TemperatureF,Dew PointF,Humidity,Sea Level PressureIn,VisibilityMPH,Wind Direction,Wind SpeedMPH,Gust SpeedMPH,PrecipitationIn,Events,Conditions,WindDirDegrees,DateUTC
12:54 AM,39.0,37.9,96,29.88,0.2,ESE,5.8,-,0.04,Fog-Rain,Light Rain,110,2014-01-06 05:54:00
1:24 AM,37.4,37.4,100,29.86,0.2,Calm,Calm,-,0.00,Fog,Fog,0,2014-01-06 06:24:00
1:26 AM,37.4,37.4,100,29.86,0.2,SE,3.5,-,0.00,Fog,Fog,140,2014-01-06 06:26:00
1:54 AM,39.0,37.9,96,29.84,0.2,Calm,Calm,-,0.01,Fog-Rain,Light Rain,0,2014-01-06 06:54:00
2:03 AM,37.4,37.4,100,29.84,0.2,Calm,Calm,-,0.00,Fog,Fog,0,2014-01-06 07:03:00
2:54 AM,43.0,42.1,97,29.79,0.2,SSE,11.5,-,0.00,Fog,Fog,160,2014-01-06 07:54:00
3:54 AM,43.0,43.0,100,29.73,0.2,South,9.2,-,0.01,Fog-Rain,Light Rain,170,2014-01-06 08:54:00
4:54 AM,44.1,43.0,96,29.67,0.2,SSE,8.1,-,0.01,Fog,Fog,150,2014-01-06 09:54:00
5:47 AM,44.6,44.6,100,29.63,0.2,South,11.5,-,0.03,Fog-Rain,Light Rain,170,2014-01-06 10:47:00
5:54 AM,45.0,44.1,97,29.63,0.2,SSE,11.5,-,0.03,Fog-Rain,Light Rain,160,2014-01-06 10:54:00
5:56 AM,44.6,44.6,100,29.63,0.2,SSE,12.7,-,0.01,Fog-Rain,Light Rain,160,2014-01-06 10:56:00
6:54 AM,46.9,46.0,97,29.59,2.0,South,6.9,-,0.04,Rain,Light Rain,170,2014-01-06 11:54:00
7:42 AM,48.2,48.2,100,29.56,0.2,SSE,10.4,-,0.03,Fog-Rain,Light Rain,160,2014-01-06 12:42:00
7:54 AM,48.0,46.9,96,29.55,0.2,SSE,11.5,-,0.03,Fog-Rain,Light Rain,160,2014-01-06 12:54:00
8:02 AM,48.2,46.4,93,29.54,0.1,SSE,12.7,-,0.00,Fog,Fog,160,2014-01-06 13:02:00
8:23 AM,48.2,46.4,93,29.53,0.1,SSE,11.5,-,0.00,Fog,Fog,160,2014-01-06 13:23:00
8:54 AM,48.0,46.9,96,29.49,0.1,SSE,15.0,-,0.01,Fog-Rain,Light Rain,160,2014-01-06 13:54:00
9:54 AM,51.1,51.1,100,29.46,0.1,South,17.3,-,0.01,Fog,Fog,170,2014-01-06 14:54:00
10:37 AM,51.8,51.8,100,29.41,0.2,South,17.3,-,0.04,Fog-Rain,Light Rain,180,2014-01-06 15:37:00
10:54 AM,52.0,52.0,100,29.40,0.5,South,17.3,-,0.04,Fog,Fog,190,2014-01-06 15:54:00
10:58 AM,53.6,51.8,94,29.40,0.1,South,17.3,-,0.01,Fog-Rain,Light Rain,190,2014-01-06 15:58:00
11:05 AM,53.6,53.6,100,29.38,0.2,South,16.1,-,0.04,Fog-Rain,Rain,180,2014-01-06 16:05:00
11:14 AM,53.6,53.6,100,29.38,0.2,South,19.6,-,0.05,Fog-Rain,Light Rain,190,2014-01-06 16:14:00
11:20 AM,53.6,53.6,100,29.37,2.0,South,18.4,-,0.05,Rain,Light Rain,190,2014-01-06 16:20:00
11:37 AM,55.4,53.6,94,29.35,10.0,South,19.6,28.8,0.06,,Overcast,190,2014-01-06 16:37:00
11:44 AM,55.4,53.6,94,29.34,10.0,SSW,20.7,28.8,0.06,Rain,Light Rain,200,2014-01-06 16:44:00
11:54 AM,55.9,54.0,93,29.34,10.0,SSW,21.9,-,0.06,Rain,Light Rain,200,2014-01-06 16:54:00
12:01 PM,55.4,53.6,94,29.34,10.0,SSW,20.7,-,0.00,,Overcast,200,2014-01-06 17:01:00
12:54 PM,55.9,54.0,93,29.31,10.0,SSW,12.7,-,0.03,Rain,Light Rain,210,2014-01-06 17:54:00
1:05 PM,53.6,51.8,94,29.30,10.0,South,10.4,-,0.00,Rain,Light Rain,190,2014-01-06 18:05:00
1:54 PM,54.0,52.0,93,29.30,10.0,SSW,10.4,-,0.00,,Overcast,200,2014-01-06 18:54:00
2:04 PM,53.6,51.8,94,29.29,7.0,SW,8.1,-,0.00,Rain,Light Rain,230,2014-01-06 19:04:00
2:54 PM,53.1,44.1,71,29.34,10.0,WSW,18.4,26.5,0.01,Rain,Light Rain,250,2014-01-06 19:54:00
3:54 PM,48.0,41.0,77,29.34,10.0,WSW,15.0,23.0,0.00,Rain,Light Rain,250,2014-01-06 20:54:00
4:54 PM,45.0,39.9,82,29.35,10.0,WSW,16.1,23.0,0.00,Rain,Light Rain,240,2014-01-06 21:54:00
5:11 PM,41.0,35.6,81,29.37,10.0,WNW,21.9,33.4,0.00,Rain,Light Rain,290,2014-01-06 22:11:00
5:19 PM,39.2,33.8,81,29.38,10.0,WNW,23.0,31.1,0.00,Rain,Light Rain,290,2014-01-06 22:19:00
5:40 PM,37.4,32.0,81,29.39,10.0,WNW,18.4,-,0.00,Rain,Light Rain,290,2014-01-06 22:40:00
5:54 PM,37.9,30.9,76,29.40,10.0,West,17.3,26.5,0.00,,Overcast,280,2014-01-06 22:54:00
6:09 PM,39.2,30.2,70,29.40,10.0,WNW,17.3,24.2,N/A,,Overcast,290,2014-01-06 23:09:00
6:54 PM,37.0,27.0,67,29.42,10.0,West,15.0,27.6,N/A,,Overcast,280,2014-01-06 23:54:00
7:54 PM,35.1,21.9,59,29.43,10.0,West,19.6,31.1,N/A,,Overcast,280,2014-01-07 00:54:00
8:54 PM,33.1,19.9,59,29.45,10.0,West,18.4,32.2,N/A,,Mostly Cloudy,270,2014-01-07 01:54:00
9:54 PM,32.0,17.1,54,29.47,10.0,West,16.1,24.2,N/A,,Mostly Cloudy,270,2014-01-07 02:54:00
10:54 PM,30.9,16.0,54,29.49,10.0,West,18.4,29.9,N/A,,Mostly Cloudy,280,2014-01-07 03:54:00
11:54 PM,28.9,12.9,51,29.51,10.0,West,18.4,25.3,N/A,,Partly Cloudy,270,2014-01-07 04:54:00